Location: Wapato
(46.4478°N, 120.4212°W)
Time: 09:16:41
(UTC+00:00)

Injun/Solrad 3 - Pass Details

Date: 14 May 2026
Orbit: 867 x 989 km, 66.8° (Epoch: 10 June)

Event Time Altitude Azimuth Distance (km) Brightness Sun altitude
Rises 01:35:24 0° 250° (WSW) 3,537 12.0 17.2°
Reaches altitude 10° 01:38:13 10° 261° (W) 2,619 12.0 16.7°
Maximum altitude 01:43:29 30° 321° (NW) 1,638 10.2 15.8°
Drops below altitude 10° 01:48:56 10° 21° (NNE) 2,702 10.3 14.9°
Sets 01:51:54 0° 32° (NNE) 3,669 10.8 14.4°
